This demonstration page uses our WeatherBlox Daily Observations layout. Learn more.

38.89511, -77.03637

Hourly Observations for February 7, 2020

Temp ( °F °C ) Dew Point ( °F °C ) Humidity (%) Winds ( mph kmh ) Pressure ( in mb ) Visibility ( mi km ) Precip ( " mm )
12:52 am 00:52 Cloudy with Light Rain 49 9.4 48 8.9 97 97 SW 5 7 29.31 992 10 16.0934 0.09 2.286
1:04 am 01:04 Cloudy with Light Rain 49 9.4 48 8.9 97 97 WSW 3 6 29.31 993 10 16.0934 0.001 0.001
1:52 am 01:52 Cloudy with Light Rain 52 11.1 51 10.6 97 97 S 6 9 29.3 992 8 12.87472 0.02 0.508
2:52 am 02:52 Cloudy 55 12.8 54 12.2 96 96 S 9 15 29.21 989 10 16.0934 0.02 0.508
2:58 am 02:58 Cloudy 55 12.8 54 12.2 96 96 S 8 13 29.2 989 10 16.0934 0 0
3:09 am 03:09 Cloudy 55 12.8 53 11.7 93 93 S 9 15 29.21 989 10 16.0934 0 0
3:52 am 03:52 Cloudy 53 11.7 53 11.7 100 100 S 10 17 29.14 987 9 14.48406 0 0
3:59 am 03:59 Cloudy 54 12.2 53 11.7 97 97 S 12 19 29.14 987 10 16.0934 0 0
4:12 am 04:12 Cloudy 56 13.3 55 12.8 97 97 S 18 30 29.11 986 10 16.0934 0 0
4:52 am 04:52 Cloudy 57 13.9 55 12.8 93 93 S 12 19 29.1 985 10 16.0934 0 0
5:04 am 05:04 Cloudy 56 13.3 55 12.8 97 97 S 13 20 29.08 985 10 16.0934 0 0
5:32 am 05:32 Cloudy 57 13.9 56 13.3 96 96 S 12 19 29.05 984 10 16.0934 0.001 0.001
5:46 am 05:46 Cloudy with Light Rain 55 13 55 13 100 100 S 12 19 29.04 983 4 6.43736 0.001 0.001
5:52 am 05:52 Cloudy with Light Rain 56 13.3 55 12.8 97 97 S 10 17 29.03 983 6 9.65604 0.01 0.254
6:24 am 06:24 Cloudy with Light Rain 57 13.9 55 12.8 93 93 S 16 26 29.03 983 10 16.0934 0.01 0.254
6:52 am 06:52 Cloudy with Light Rain 56 13.3 55 12.8 97 97 S 17 28 29 982 10 16.0934 0.02 0.508
7:09 am 07:09 Cloudy with Light Rain 57 13.9 55 12.8 93 93 S 21 33 29 982 10 16.0934 0.001 0.001
7:41 am 07:41 Mostly Cloudy 57 13.9 54 12.2 90 90 S 17 28 28.98 981 10 16.0934 0.01 0.254
7:52 am 07:52 Cloudy 56 13.3 54 12.2 93 93 S 16 26 28.98 981 10 16.0934 0.02 0.508
8:26 am 08:26 Windy with Storms Likely 58 14.4 55 12.8 90 90 W 28 44 29 982 2 3.21868 0.001 0.001
8:29 am 08:29 Cloudy with Heavy Thunderstorms 57 13.9 53 11.7 87 87 SW 29 46 29 982 1 1.60934 0.03 0.762
8:34 am 08:34 Windy with Storms Likely 54 12.2 50 10 87 87 SW 20 31 29 982 4 6.43736 0.1 2.54
8:42 am 08:42 Cloudy with Light Rain 54 12.2 50 10 87 87 SW 15 24 29.02 983 7 11.26538 0.1 2.54
8:52 am 08:52 Cloudy with Rain 54 12.2 51 10.6 90 90 W 14 22 29.03 983 5 8.0467 0.12 3.048
9:06 am 09:06 Cloudy with Rain 52 11.1 48 8.9 86 86 WNW 18 30 29.05 984 4 6.43736 0.03 0.762
9:37 am 09:37 Cloudy with Rain 49 9.4 44 6.7 83 83 WNW 22 35 29.1 985 4 6.43736 0.11 2.794
9:52 am 09:52 Cloudy with Rain 47 8.3 42 5.6 83 83 WNW 21 33 29.14 987 4 6.43736 0.11 2.794
10:52 am 10:52 Cloudy 47 8.3 38 3.3 71 71 NW 15 24 29.21 989 10 16.0934 0.03 0.762
11:52 am 11:52 Mostly Cloudy 48 8.9 36 2.2 63 63 W 16 26 29.26 991 10 16.0934 0 0
12:52 pm 12:52 Mostly Cloudy 52 11.1 34 1.1 50 50 NW 20 31 29.28 992 10 16.0934 0 0
1:52 pm 13:52 Mostly Cloudy 48 8.9 28 -2.2 46 46 WNW 21 33 29.35 994 10 16.0934 0 0
2:52 pm 14:52 Partly Cloudy 48 8.9 26 -3.3 42 42 WNW 23 37 29.41 996 10 16.0934 0 0
3:52 pm 15:52 Mostly Cloudy 48 8.9 24 -4.4 39 39 WNW 25 41 29.48 998 10 16.0934 0 0
4:52 pm 16:52 Mostly Cloudy 44 6.7 20 -6.7 38 38 WNW 21 33 29.56 1001 10 16.0934 0 0
5:52 pm 17:52 Partly Cloudy 41 5 19 -7.2 41 41 WNW 18 30 29.63 1003 10 16.0934 0 0
6:52 pm 18:52 Mostly Cloudy 41 5 18 -7.8 39 39 W 24 39 29.7 1006 10 16.0934 0 0
7:52 pm 19:52 Mostly Cloudy 39 3.9 21 -6.1 48 48 W 17 28 29.76 1008 10 16.0934 0 0
8:52 pm 20:52 Mostly Cloudy 39 3.9 21 -6.1 48 48 WNW 14 22 29.82 1010 10 16.0934 0 0
9:52 pm 21:52 Partly Cloudy 38 3.3 21 -6.1 51 51 W 18 30 29.87 1012 10 16.0934 0 0
10:52 pm 22:52 Mostly Clear 37 2.8 22 -5.6 54 54 W 17 28 29.93 1013 10 16.0934 0 0
11:52 pm 23:52 Mostly Clear 36 2.2 22 -5.6 57 57 WNW 12 19 29.96 1014 10 16.0934 0 0

Powered by AerisWeather